{"data":{"norad_id":64699,"intl_designator":"2025-142D","name":"STARLINK-34600","alt_names":[],"object_type":"PAYLOAD","status":"ACTIVE","operator":null,"country":"US","launch_date":"2025-06-28","launch_site_code":"AFWTR","launch_vehicle":null,"mission":null,"orbit_class":"UNKNOWN","rcs_meters":null,"size_class":null,"mass_kg":null,"dimensions":null,"purposes":["comms"],"wikipedia_slug":null,"has_3d_model":false,"image_url":null,"decayed_at":null,"tle_current":{"epoch":"2026-05-25T02:24:09.980928Z","epoch_age_seconds":62319,"freshness":"FRESH","line1":"1 64699U 25142D   26145.10011552  .00002093  00000+0  18306-3 0  9995","line2":"2 64699  70.0011 121.8806 0004211 262.8879  97.1801 14.98341320 50928","mean_motion":14.9834132,"eccentricity":0.0004211,"inclination_deg":70.0011,"raan_deg":121.8806,"arg_perigee_deg":262.8879,"mean_anomaly_deg":97.1801,"bstar":0.00018306,"rev_number":5092,"period_min":96.106273035305,"perigee_km":569.09417351323,"apogee_km":574.94759648397,"semimajor_km":6950.1578849986,"source":"CELESTRAK","updated_at":"2026-05-25T13:38:20.510987Z"}}}